User: anonymous   Login
Location: Conjunto Santa Maria
(19.9513°S, 43.9599°W)
Time: 03:35:38
(UTC+00:00)
Language:

Cosmos-2242 - Orbit

View from above orbital plane
View from above orbital plane
View from above satellite
View from above satellite

Ground track
Ground track

The orbit data is extracted from the following two-line orbital elements,

1 22626U 93024A   21106.42223496  .00000201  00000-0  19028-4 0  9995
2 22626  82.5223 162.2196 0019742 150.8193 209.4132 14.88107993513908
Epoch (UTC): 16 April 2021 10:08:01
Eccentricity: 0.0019742
inclination: 82.5223°
perigee height: 590 km
apogee height: 617 km
right ascension of ascending node: 162.2196°
argument of perigee: 150.8193°
revolutions per day: 14.88107993
mean anomaly at epoch: 209.4132°
orbit number at epoch: 51390

The dashed part of the orbit path shows where the satellite is in the earth's shadow,  

DLR